| time (UTC) | temp F | wind direction | speed MPH | gust MPH | rain 1hr in | rain 24hr in | rain mn in | humidity % | barometer mb |
| 20260904081556 | 67 | 317 | 0.0 | 0.0 | 0.00 | 0.00 | 0.00 | 100 | 1014.3 |
| 20260904080114 | 66 | 317 | 0.0 | 0.0 | 0.00 | 0.00 | 0.00 | 100 | 1014.1 |
| 20260904074548 | 67 | 317 | 0.0 | 0.0 | 0.00 | 0.00 | 0.00 | 100 | 1014.1 |
| 20260904073043 | 67 | 317 | 0.0 | 0.0 | 0.00 | 0.00 | 0.00 | 100 | 1014.1 |
| 20260904071541 | 67 | 317 | 0.0 | 0.0 | 0.00 | 0.00 | 0.00 | 100 | 1014.3 |
| 20260904070044 | 67 | 317 | 0.0 | 0.0 | 0.00 | 0.00 | 0.00 | 100 | 1014.3 |
| 20260904064530 | 67 | 317 | 0.0 | 0.0 | 0.00 | 0.00 | 0.00 | 100 | 1014.4 |
| 20260904063028 | 68 | 317 | 0.0 | 2.0 | 0.00 | 0.00 | 0.00 | 100 | 1014.6 |
| 20260904061521 | 68 | 317 | 0.0 | 2.0 | 0.00 | 0.00 | 0.00 | 100 | 1014.5 |
| 20260904060018 | 68 | 319 | 0.0 | 2.0 | 0.00 | 0.00 | 0.00 | 100 | 1014.4 |
| 20260904054547 | 68 | 343 | 0.0 | 2.0 | 0.00 | 0.00 | 0.00 | 100 | 1014.2 |
| 20260904053008 | 68 | 58 | 0.0 | 0.0 | 0.00 | 0.00 | 0.00 | 100 | 1014.1 |
| 20260904051502 | 68 | 57 | 0.0 | 0.0 | 0.00 | 0.00 | 0.00 | 100 | 1014.1 |
| 20260904050059 | 68 | 58 | 0.0 | 0.0 | 0.00 | 0.00 | 0.00 | 100 | 1014.2 |
| 20260904044610 | 68 | 58 | 0.0 | 0.0 | 0.00 | 0.00 | 0.00 | 100 | 1014.4 |
| 20260904043057 | 68 | 59 | 0.0 | 0.0 | 0.00 | 0.00 | 0.00 | 100 | 1014.1 |
| 20260904041545 | 68 | 58 | 0.0 | 0.0 | 0.00 | 0.00 | 0.00 | 100 | 1014.1 |
| 20260904040042 | 69 | 60 | 0.0 | 0.0 | 0.00 | 0.00 | 0.00 | 100 | 1014.0 |
| 20260904034537 | 69 | 60 | 0.0 | 0.0 | 0.00 | 0.00 | 0.00 | 100 | 1013.8 |
| 20260904033034 | 69 | 60 | 0.0 | 0.0 | 0.00 | 0.00 | 0.00 | 100 | 1013.9 |
| 20260904031528 | 69 | 60 | 0.0 | 0.0 | 0.00 | 0.00 | 0.00 | 100 | 1013.8 |
| 20260904030034 | 69 | 134 | 1.0 | 2.0 | 0.00 | 0.00 | 0.00 | 100 | 1013.5 |
| 20260904024522 | 69 | 134 | 0.0 | 1.0 | 0.00 | 0.00 | 0.00 | 100 | 1013.2 |
| 20260904023014 | 69 | 134 | 0.0 | 0.0 | 0.00 | 0.00 | 0.00 | 100 | 1013.2 |
| 20260904021509 | 69 | 134 | 1.0 | 2.0 | 0.00 | 0.00 | 0.00 | 100 | 1012.9 |
| 20260904020006 | 69 | 134 | 2.0 | 4.0 | 0.00 | 0.00 | 0.00 | 100 | 1013.2 |
| 20260904014501 | 69 | 49 | 2.0 | 4.0 | 0.00 | 0.00 | 0.00 | 100 | 1013.3 |
| 20260904013120 | 69 | 244 | 1.0 | 6.0 | 0.00 | 0.00 | 0.00 | 100 | 1012.9 |
| 20260904011628 | 69 | 259 | 3.0 | 8.0 | 0.00 | 0.00 | 0.00 | 100 | 1012.7 |
| 20260904010049 | 70 | 239 | 2.0 | 8.0 | 0.00 | 0.00 | 0.00 | 100 | 1012.4 |
| 20260904004544 | 70 | 258 | 5.0 | 13.0 | 0.00 | 0.00 | 0.00 | 100 | 1012.5 |
| 20260904003041 | 70 | 257 | 3.0 | 10.0 | 0.00 | 0.00 | 0.00 | 100 | 1012.2 |
| 20260904001534 | 70 | 254 | 4.0 | 9.0 | 0.00 | 0.00 | 0.00 | 100 | 1012.5 |
| 20260904000032 | 71 | 246 | 4.0 | 11.0 | 0.00 | 0.00 | 0.00 | 100 | 1013.0 |
| 20260903234526 | 71 | 250 | 3.0 | 6.0 | 0.00 | 0.00 | 0.00 | 100 | 1013.5 |
| 20260903233033 | 71 | 184 | 1.0 | 8.0 | 0.00 | 0.00 | 0.00 | 100 | 1014.4 |
| 20260903231530 | 71 | 313 | 0.0 | 4.0 | 0.00 | 0.00 | 0.00 | 100 | 1015.1 |
| 20260903230013 | 72 | 11 | 2.0 | 7.0 | 0.00 | 0.00 | 0.00 | 100 | 1015.4 |
| 20260903224508 | 73 | 5 | 3.0 | 12.0 | 0.00 | 0.00 | 0.00 | 100 | 1014.4 |
| 20260903223004 | 75 | 14 | 2.0 | 11.0 | 0.00 | 0.00 | 0.00 | 100 | 1014.9 |
| 20260903221600 | 76 | 340 | 2.0 | 5.0 | 0.00 | 0.00 | 0.00 | 100 | 1014.3 |
| 20260903220055 | 76 | 281 | 0.0 | 0.0 | 0.00 | 0.00 | 0.00 | 100 | 1013.6 |
| 20260903214603 | 77 | 281 | 1.0 | 4.0 | 0.00 | 0.00 | 0.00 | 100 | 1012.6 |
| 20260903213046 | 77 | 294 | 1.0 | 3.0 | 0.00 | 0.00 | 0.00 | 100 | 1012.8 |
| 20260903211549 | 77 | 292 | 1.0 | 4.0 | 0.00 | 0.00 | 0.00 | 100 | 1012.5 |
| 20260903210052 | 77 | 90 | 0.0 | 5.0 | 0.00 | 0.00 | 0.00 | 100 | 1012.1 |
| 20260903204534 | 77 | 92 | 0.0 | 4.0 | 0.00 | 0.00 | 0.00 | 100 | 1012.7 |
| 20260903203033 | 77 | 24 | 2.0 | 5.0 | 0.00 | 0.00 | 0.00 | 100 | 1012.5 |
| 20260903201525 | 78 | 30 | 2.0 | 7.0 | 0.00 | 0.00 | 0.00 | 100 | 1012.6 |
| 20260903200021 | 80 | 37 | 2.0 | 7.0 | 0.00 | 0.00 | 0.00 | 100 | 1012.5 |
| 20260903194515 | 80 | 296 | 2.0 | 6.0 | 0.00 | 0.00 | 0.00 | 100 | 1012.4 |
| 20260903193013 | 79 | 42 | 0.0 | 7.0 | 0.00 | 0.00 | 0.00 | 100 | 1012.1 |
| 20260903191519 | 79 | 341 | 3.0 | 6.0 | 0.00 | 0.00 | 0.00 | 100 | 1012.6 |
| 20260903190002 | 80 | 9 | 4.0 | 9.0 | 0.00 | 0.00 | 0.00 | 100 | 1012.9 |
| 20260903184602 | 80 | 304 | 3.0 | 8.0 | 0.00 | 0.00 | 0.00 | 100 | 1013.1 |
| 20260903183058 | 81 | 16 | 3.0 | 7.0 | 0.00 | 0.00 | 0.00 | 100 | 1013.2 |
| 20260903181549 | 83 | 355 | 2.0 | 6.0 | 0.00 | 0.00 | 0.00 | 100 | 1013.1 |
| 20260903180046 | 83 | 308 | 1.0 | 6.0 | 0.00 | 0.00 | 0.00 | 1 | 1012.9 |
| 20260903174540 | 83 | 355 | 3.0 | 9.0 | 0.00 | 0.00 | 0.00 | 5 | 1013.2 |
| 20260903173035 | 83 | 287 | 2.0 | 7.0 | 0.00 | 0.00 | 0.00 | 2 | 1013.2 |
| 20260903171531 | 83 | 360 | 3.0 | 8.0 | 0.00 | 0.00 | 0.00 | 5 | 1013.4 |
| 20260903170036 | 83 | 310 | 2.0 | 7.0 | 0.00 | 0.00 | 0.00 | 6 | 1013.3 |
| 20260903164523 | 83 | 319 | 3.0 | 8.0 | 0.00 | 0.00 | 0.00 | 8 | 1013.5 |
| 20260903163027 | 83 | 289 | 3.0 | 7.0 | 0.00 | 0.00 | 0.00 | 9 | 1013.5 |
| 20260903161515 | 83 | 292 | 3.0 | 7.0 | 0.00 | 0.00 | 0.00 | 12 | 1013.5 |
| 20260903160009 | 83 | 288 | 2.0 | 5.0 | 0.00 | 0.00 | 0.00 | 3 | 1013.4 |
| 20260903154505 | 82 | 309 | 3.0 | 10.0 | 0.00 | 0.00 | 0.00 | 7 | 1013.5 |
| 20260903153109 | 81 | 289 | 3.0 | 8.0 | 0.00 | 0.00 | 0.00 | 3 | 1013.6 |
| 20260903151607 | 81 | 281 | 3.0 | 7.0 | 0.00 | 0.00 | 0.00 | 3 | 1013.7 |
| 20260903150057 | 79 | 321 | 2.0 | 8.0 | 0.00 | 0.00 | 0.00 | 1 | 1013.7 |
| 20260903144547 | 78 | 347 | 3.0 | 7.0 | 0.00 | 0.00 | 0.00 | 100 | 1013.8 |
| 20260903143042 | 77 | 300 | 2.0 | 5.0 | 0.00 | 0.00 | 0.00 | 100 | 1013.8 |
| 20260903141525 | 76 | 279 | 3.0 | 7.0 | 0.00 | 0.00 | 0.00 | 100 | 1013.9 |
| 20260903140023 | 75 | 250 | 4.0 | 7.0 | 0.00 | 0.00 | 0.00 | 100 | 1013.9 |
| 20260903134522 | 75 | 256 | 3.0 | 7.0 | 0.00 | 0.00 | 0.00 | 100 | 1014.0 |
| 20260903133012 | 74 | 271 | 2.0 | 5.0 | 0.00 | 0.00 | 0.00 | 100 | 1014.1 |
| 20260903131508 | 72 | 237 | 1.0 | 6.0 | 0.00 | 0.00 | 0.00 | 100 | 1014.1 |
| 20260903130004 | 72 | 241 | 3.0 | 6.0 | 0.00 | 0.00 | 0.00 | 100 | 1014.1 |
| 20260903124613 | 71 | 250 | 3.0 | 6.0 | 0.00 | 0.00 | 0.00 | 100 | 1014.3 |
| 20260903123055 | 70 | 244 | 2.0 | 7.0 | 0.00 | 0.00 | 0.00 | 100 | 1014.3 |
| 20260903121550 | 69 | 223 | 2.0 | 5.0 | 0.00 | 0.00 | 0.00 | 100 | 1014.4 |
| 20260903120057 | 69 | 230 | 1.0 | 4.0 | 0.00 | 0.00 | 0.00 | 100 | 1014.2 |
| 20260903114542 | 69 | 223 | 1.0 | 4.0 | 0.00 | 0.00 | 0.00 | 100 | 1014.2 |
| 20260903113043 | 69 | 199 | 2.0 | 7.0 | 0.00 | 0.00 | 0.00 | 100 | 1014.3 |
| 20260903111533 | 69 | 235 | 1.0 | 4.0 | 0.00 | 0.00 | 0.00 | 100 | 1014.0 |
| 20260903110029 | 69 | 250 | 0.0 | 3.0 | 0.00 | 0.00 | 0.00 | 100 | 1013.6 |
| 20260903104525 | 69 | 269 | 1.0 | 4.0 | 0.00 | 0.00 | 0.00 | 100 | 1013.1 |
| 20260903103020 | 69 | 287 | 1.0 | 10.0 | 0.00 | 0.00 | 0.00 | 100 | 1013.5 |
| 20260903101536 | 69 | 307 | 5.0 | 13.0 | 0.00 | 0.00 | 0.00 | 100 | 1013.9 |
| 20260903100011 | 69 | 277 | 4.0 | 18.0 | 0.00 | 0.00 | 0.00 | 100 | 1014.2 |
| 20260903094507 | 69 | 282 | 5.0 | 12.0 | 0.00 | 0.00 | 0.00 | 100 | 1013.3 |
| 20260903093001 | 68 | 338 | 3.0 | 10.0 | 0.00 | 0.00 | 0.00 | 100 | 1013.3 |
| 20260903091602 | 68 | 244 | 2.0 | 6.0 | 0.00 | 0.00 | 0.00 | 100 | 1012.2 |
| 20260903090054 | 68 | 238 | 2.0 | 7.0 | 0.00 | 0.00 | 0.00 | 100 | 1012.1 |
| 20260903084550 | 68 | 250 | 2.0 | 6.0 | 0.00 | 0.00 | 0.00 | 100 | 1012.6 |
| 20260903083045 | 68 | 244 | 2.0 | 8.0 | 0.00 | 0.00 | 0.00 | 100 | 1012.5 |